This demonstration page uses our WeatherBlox Daily Observations layout. Learn more.

Left ArrowRight Arrow

34.16533, -84.80231

Hourly Observations for August 5, 2020

Temp ( °F °C ) Dew Point ( °F °C ) Humidity (%) Winds ( mph kmh ) Pressure ( in mb ) Visibility ( mi km ) Precip ( " mm )
12:53 am 00:53 Clear 72 22.2 68 20 87 87 Calm 29.98 1015 10 16 0.00 0.00
1:53 am 01:53 Clear 71 21.7 67 19.4 87 87 Calm 29.98 1015 10 16 0.00 0.00
2:53 am 02:53 Clear 73 22.8 68 20 84 84 Calm 29.96 1015 10 16 0.00 0.00
3:53 am 03:53 Clear 71 21.7 67 19.4 87 87 Calm 29.96 1015 10 16 0.00 0.00
4:53 am 04:53 Clear 69 20.6 66 18.9 90 90 Calm 29.97 1015 8 13 0.00 0.00
5:53 am 05:53 Clear 68 20 66 18.9 93 93 Calm 29.97 1015 8 13 0.00 0.00
6:53 am 06:53 Clear 68 20 66 18.9 93 93 Calm 29.98 1015 7 11 0.00 0.00
7:53 am 07:53 Sunny 71 21.7 68 20 90 90 Calm 29.99 1016 8 13 0.00 0.00
8:53 am 08:53 Sunny 75 23.9 69 20.6 82 82 Calm 29.99 1016 10 16 0.00 0.00
9:53 am 09:53 Sunny 80 26.7 69 20.6 69 69 N 3 6 29.99 1016 10 16 0.00 0.00
10:53 am 10:53 Sunny 85 29.4 70 21.1 61 61 NNE 6 9 29.99 1016 10 16 0.00 0.00
11:53 am 11:53 Mostly Cloudy 88 31.1 69 20.6 54 54 VRB 3 6 30.00 1016 10 16 0.00 0.00
12:53 pm 12:53 Mostly Sunny 90 32.2 67 19.4 47 47 VRB 5 7 29.99 1016 10 16 0.00 0.00
1:53 pm 13:53 Partly Cloudy with Nearby Thunderstorms 92 33.3 67 19.4 44 44 VRB 6 9 29.98 1015 10 16 0.00 0.00
2:14 pm 14:14 Mostly Cloudy 87 30.6 69 20.6 55 55 VRB 3 6 29.99 1015 10 16 0.00 0.00
2:53 pm 14:53 Mostly Cloudy 87 30.6 69 20.6 55 55 N 6 9 29.98 1015 10 16 0.00 0.00
3:53 pm 15:53 Partly Cloudy 87 30.6 66 18.9 50 50 VRB 3 6 29.97 1015 10 16 0.00 0.00
4:53 pm 16:53 Sunny 91 32.8 68 20 47 47 N 6 9 29.96 1014 10 16 0.00 0.00
5:53 pm 17:53 Sunny 90 32.2 67 19.4 47 47 Calm 29.94 1014 10 16 0.00 0.00
6:53 pm 18:53 Sunny 88 31.1 68 20 52 52 NNE 3 6 29.93 1014 10 16 0.00 0.00
7:53 pm 19:53 Mostly Cloudy 86 30 70 21.1 59 59 Calm 29.93 1014 10 16 0.00 0.00
8:53 pm 20:53 Mostly Clear 79 26.1 72 22.2 79 79 Calm 29.94 1014 10 16 0.00 0.00
9:53 pm 21:53 Clear 77 25 72 22.2 85 85 Calm 29.95 1014 10 16 0.00 0.00
10:53 pm 22:53 Clear 76 24.4 72 22.2 88 88 Calm 29.96 1015 10 16 0.00 0.00
11:53 pm 23:53 Mostly Cloudy 77 25 72 22.2 85 85 Calm 29.96 1015 10 16 0.00 0.00

Powered by AerisWeather